"Pseudo-MPEC" for P11JzPv

Created 2023 Sep 27 0:22:12 UT using Find_Orb

Click here for an explanation of pseudo-MPECs

 
 Astrometry: 
     P11JzPv* C2023 09 15KBrfQvCA:`4TKxH!Ku4;DLZ2@^o@0l8vChR@0mxGQQJ,Vy@rCF,_F51
     P11JzPv  C2023 09 15YM9=vZMBL$eoV+YIeWK.OHeNC7KiCdHJ#@!7GCKc3(nl+Z#VPf_SF51
     P11JzPv  C2023 09 15Q3PB8?eBjZbkq/Astrometryh55Qredacted;qn4L3d8rqC`GexAF51
     P11JzPv  C2023 09 15*U=t5Ye`BTPW_RN_!QsM8?6/bv1MO,1*I,s(KYJY/\?b0$c;RjYjF51
     P11JzPv  C2023 09 15/JSKROJcYsoclickRUAfZus7LRTB*D!N-%[X0UJtixCu-dag?7)8F51
     P11JzPv  C2023 09 15N0j]RN'-Vi38G982H`7n)gHNCg?'YH7$+C,fPcUc!WV9C%/)pX2]F51
     P11JzPv  C2023 09 15ZZfW!_^[-hereO98rEY#.h@/EwBVfKLD8fordXL*5NiNcw#iPGHSF51
     P11JzPv  C2023 09 1507M?6$vYZb^a`v%#/-Qx[nu9p?iqexplanationgv[XI!o(Q(bm@F51

Station data:
(F51) Pan-STARRS 1, Haleakala  (N20.707234 W156.255910)  US/Hawaii.
   Observers J. Bulger, T. Lowe, A. Schultz, M. Willman. Measurers K.
   Chambers, S. Chastel, T. de Boer, L. Denneau, J. Fairlamb, H. Flewelling,
   M. Huber, C.-C. Lin, E. Magnier, Y. Ramanjooloo, R. Wainscoat, R. Weryk.
   1.8-m Ritchey-Chrétien + CCD.

Orbital elements:  P11JzPv
   Perihelion 2022 Sep 26.30876 +/- 154 TT =  7:24:36 (JD 2459848.80876)
Epoch 2023 Sep 15.0 TT = JDT 2460202.5   Earth MOID: 0.8764      AutoNEOCP
M 124.33148947 +/- 60               (J2000 ecliptic)
n   0.35152549 +/- 0.23             Peri.  194.23279 +/- 100
a   1.98837440 +/- 0.866            Node    19.18830 +/- 37
e   0.0565264 +/- 0.27              Incl.   31.83950 +/- 21
P   2.80                   H 19.18  G  0.15   U 11.8  SR
q 1.87597872 +/- 0.703    Q 2.10077007 +/- 11.3
From 8 observations 2023 Sept. 15 (1.9 hr); mean residual 0".09
Residuals in arcseconds: 
230915 F51  .09+  .08-    230915 F51  .14+  .06+    230915 F51  .01-  .04+    
230915 F51  .04-  .06+    230915 F51  .09-  .08+    230915 F51  .15+  .07-    
230915 F51  .18-  .01-    230915 F51  .06-  .07-    

Ephemerides (geocentric):
Date (UTC) HH   RA             Dec           delta  r     elong  mag " sig PA
---- --------  ------------   ------------  ------ ------ -----  --- --------
2023 09 27 00  23 33 51.798   -35 26 17.69  1.1765 2.0621 142.2 22.0 2233  66
2023 09 27 01  23 33 47.033   -35 25 41.94  1.1766 2.0621 142.2 22.0 2248  66
2023 09 27 02  23 33 42.271   -35 25 06.14  1.1768 2.0621 142.1 22.0 2264  66
2023 09 27 03  23 33 37.513   -35 24 30.29  1.1769 2.0622 142.1 22.0 2280  65
2023 09 27 04  23 33 32.759   -35 23 54.40  1.1771 2.0622 142.1 22.0 2296  65
2023 09 27 05  23 33 28.008   -35 23 18.45  1.1772 2.0622 142.1 22.0 2312  65
2023 09 27 06  23 33 23.260   -35 22 42.46  1.1774 2.0622 142.1 22.0 2328  65
2023 09 27 07  23 33 18.516   -35 22 06.42  1.1775 2.0622 142.0 22.0 2344  65
2023 09 27 08  23 33 13.776   -35 21 30.33  1.1777 2.0623 142.0 22.0 2360  65
2023 09 27 09  23 33 09.039   -35 20 54.19  1.1779 2.0623 142.0 22.0 2377  65
2023 09 27 10  23 33 04.306   -35 20 18.00  1.1780 2.0623 142.0 22.0 2393  65
2023 09 27 11  23 32 59.577   -35 19 41.77  1.1782 2.0623 142.0 22.0 2409  65
2023 09 27 12  23 32 54.851   -35 19 05.48  1.1783 2.0624 141.9 22.0 2426  64
2023 09 27 13  23 32 50.129   -35 18 29.15  1.1785 2.0624 141.9 22.0 2442  64
2023 09 27 14  23 32 45.410   -35 17 52.77  1.1787 2.0624 141.9 22.0 2459  64
2023 09 27 15  23 32 40.695   -35 17 16.35  1.1788 2.0624 141.9 22.0 2476  64
2023 09 27 16  23 32 35.984   -35 16 39.87  1.1790 2.0624 141.9 22.0 2492  64
2023 09 27 17  23 32 31.276   -35 16 03.35  1.1791 2.0625 141.8 22.0 2509  64
2023 09 27 18  23 32 26.572   -35 15 26.78  1.1793 2.0625 141.8 22.0 2526  64
2023 09 27 19  23 32 21.872   -35 14 50.16  1.1795 2.0625 141.8 22.0 2543  64
2023 09 27 20  23 32 17.175   -35 14 13.49  1.1796 2.0625 141.8 22.0 2560  64
2023 09 27 21  23 32 12.482   -35 13 36.78  1.1798 2.0625 141.8 22.0 2577  64
2023 09 27 22  23 32 07.793   -35 13 00.01  1.1800 2.0626 141.7 22.0 2594  63
2023 09 27 23  23 32 03.107   -35 12 23.20  1.1801 2.0626 141.7 22.0 2612  63
2023 09 28 00  23 31 58.426   -35 11 46.35  1.1803 2.0626 141.7 22.0 2629  63
2023 09 28 01  23 31 53.747   -35 11 09.44  1.1805 2.0626 141.7 22.0 2646  63
2023 09 28 02  23 31 49.073   -35 10 32.49  1.1806 2.0626 141.7 22.0 2664  63
2023 09 28 03  23 31 44.402   -35 09 55.49  1.1808 2.0627 141.6 22.0 2681  63
2023 09 28 04  23 31 39.736   -35 09 18.45  1.1810 2.0627 141.6 22.0 2699  63
2023 09 28 05  23 31 35.072   -35 08 41.35  1.1811 2.0627 141.6 22.0 2716  63
2023 09 28 06  23 31 30.413   -35 08 04.21  1.1813 2.0627 141.6 22.0 2734  63
2023 09 28 07  23 31 25.757   -35 07 27.03  1.1815 2.0627 141.6 22.0 2752  63
2023 09 28 08  23 31 21.105   -35 06 49.79  1.1816 2.0628 141.5 22.0 2770  62
2023 09 28 09  23 31 16.457   -35 06 12.51  1.1818 2.0628 141.5 22.0 2788  62
2023 09 28 10  23 31 11.813   -35 05 35.19  1.1820 2.0628 141.5 22.0 2806  62
2023 09 28 11  23 31 07.173   -35 04 57.81  1.1821 2.0628 141.5 22.0 2824  62
2023 09 28 12  23 31 02.536   -35 04 20.39  1.1823 2.0629 141.5 22.0 2842  62
2023 09 28 13  23 30 57.903   -35 03 42.92  1.1825 2.0629 141.4 22.0 2860  62
2023 09 28 14  23 30 53.274   -35 03 05.41  1.1826 2.0629 141.4 22.0 2879  62
2023 09 28 15  23 30 48.649   -35 02 27.85  1.1828 2.0629 141.4 22.0 2897  62
2023 09 28 16  23 30 44.027   -35 01 50.24  1.1830 2.0629 141.4 22.0 2916  62
2023 09 28 17  23 30 39.410   -35 01 12.59  1.1832 2.0630 141.4 22.0 2934  62
2023 09 28 18  23 30 34.796   -35 00 34.89  1.1833 2.0630 141.3 22.0 2953  61
2023 09 28 19  23 30 30.186   -34 59 57.14  1.1835 2.0630 141.3 22.0 2971  61
2023 09 28 20  23 30 25.580   -34 59 19.35  1.1837 2.0630 141.3 22.0 2990  61
2023 09 28 21  23 30 20.978   -34 58 41.52  1.1838 2.0630 141.3 22.0 3009  61
2023 09 28 22  23 30 16.380   -34 58 03.63  1.1840 2.0631 141.2 22.0 3028  61
2023 09 28 23  23 30 11.785   -34 57 25.70  1.1842 2.0631 141.2 22.0 3047  61